Location: Unspecified
(17.6330°N, 0.0000°E)
Time: 21:24:03
(UTC+00:00)

N. Korean satellite - Pass Details

Date: 07 November 2020
Orbit: 453 x 503 km, 97.2° (Epoch: 03 December)

Event Time Altitude Azimuth Distance (km) Brightness Sun altitude
Rises 05:23:32 0° 6° (N) 2,474 10.1 -9.6°
Reaches altitude 10° 05:25:34 10° 4° (N) 1,605 9.1 -9.1°
Maximum altitude 05:28:58 65° 282° (WNW) 515 6.4 -8.3°
Drops below altitude 10° 05:32:26 10° 200° (SSW) 1,628 9.2 -7.5°
Sets 05:34:30 0° 197° (SSW) 2,513 10.2 -7.0°
